CDT,Max TemperatureF,Mean TemperatureF,Min TemperatureF,Max Dew PointF,MeanDew PointF,Min DewpointF,Max Humidity, Mean Humidity, Min Humidity, Max Sea Level PressureIn, Mean Sea Level PressureIn, Min Sea Level PressureIn, Max VisibilityMiles, Mean VisibilityMiles, Min VisibilityMiles, Max Wind SpeedMPH, Mean Wind SpeedMPH, Max Gust SpeedMPH,PrecipitationIn, CloudCover, Events, WindDirDegrees
2012-5-1,89,79,68,64,63,60,87,63,38,29.80,29.75,29.66,10,10,10,30,18,37,0.00,0,,172
2012-5-2,91,81,70,67,65,62,90,64,38,29.83,29.74,29.70,10,10,10,26,17,32,0.00,1,,180
2012-5-3,94,81,68,68,65,60,87,63,38,29.94,29.81,29.74,10,10,10,22,12,29,0.00,0,,175
2012-5-4,99,85,71,68,62,54,84,55,26,29.94,29.80,29.70,10,10,5,28,14,35,0.02,1,Rain,183
2012-5-5,100,86,72,69,63,50,90,55,20,29.83,29.75,29.65,10,10,9,33,15,44,0.00,0,,183
2012-5-6,100,86,71,68,53,34,84,47,10,29.84,29.74,29.67,10,10,5,24,14,37,0.07,0,Rain-Thunderstorm,194
2012-5-7,81,72,63,66,61,56,93,72,51,30.06,29.90,29.78,10,9,1,30,11,37,0.41,3,Rain,34
2012-5-8,67,62,57,61,55,49,100,78,56,30.09,30.03,29.96,10,9,3,18,7,30,0.30,7,Rain,3
2012-5-9,79,68,56,56,50,45,93,62,30,30.09,30.01,29.91,10,10,10,13,5,18,0.00,1,,61
2012-5-10,71,64,57,61,56,52,100,79,57,29.94,29.86,29.76,10,8,2,23,9,35,0.89,5,Rain,169
2012-5-11,75,65,55,61,58,55,100,77,53,30.08,29.87,29.79,10,6,0,17,4,24,0.29,6,Fog-Rain,316
2012-5-12,69,64,59,61,58,57,100,84,68,30.21,30.13,30.04,10,9,6,18,10,23,0.00,7,,350
2012-5-13,80,66,51,59,54,51,100,70,39,30.24,30.17,30.08,10,9,5,24,4,25,0.00,2,,41
2012-5-14,77,69,61,59,56,51,84,64,43,30.12,30.07,30.01,10,10,10,14,5,25,T,6,Rain,81
2012-5-15,82,69,56,59,53,45,93,61,28,30.11,30.06,30.01,10,10,9,12,6,28,0.00,2,,348
2012-5-16,90,74,58,58,50,39,86,52,18,30.06,30.00,29.92,10,10,10,20,5,30,0.00,0,,210
2012-5-17,88,74,59,56,51,44,80,51,22,29.99,29.91,29.81,10,10,10,18,10,24,0.00,0,,171
2012-5-18,88,78,67,58,55,53,63,49,34,29.85,29.78,29.70,10,10,10,28,19,37,0.00,0,,174
2012-5-19,91,79,66,63,60,58,81,59,36,29.84,29.78,29.71,10,10,10,29,18,37,0.00,0,,171
2012-5-20,87,77,67,65,61,59,93,67,40,30.12,30.00,29.84,10,10,10,20,11,26,0.00,3,,150
2012-5-21,86,75,63,60,58,56,84,61,37,30.16,30.08,30.01,10,10,10,13,5,24,0.00,2,,142
2012-5-22,91,77,63,60,57,54,78,54,29,30.01,29.89,29.73,10,10,10,17,11,26,T,0,,169
2012-5-23,99,84,69,66,57,50,70,45,20,29.70,29.56,29.43,10,10,10,25,18,33,0.00,0,,173
2012-5-24,102,88,73,69,58,35,84,48,11,29.59,29.50,29.44,10,10,10,26,15,36,0.00,0,,193
2012-5-25,96,84,72,70,67,62,87,62,36,29.80,29.69,29.60,10,10,10,28,18,32,0.00,0,,170
2012-5-26,94,84,73,69,63,57,84,58,32,29.91,29.84,29.78,10,10,10,29,18,37,0.00,0,,164
2012-5-27,90,80,70,66,64,62,84,64,44,29.87,29.81,29.74,10,10,10,29,18,37,T,1,,171
2012-5-28,97,82,67,68,65,59,84,60,35,29.94,29.79,29.68,10,10,10,45,12,59,0.33,1,Rain-Thunderstorm,171
2012-5-29,98,85,72,70,65,56,84,55,25,29.84,29.78,29.70,10,10,10,26,13,32,0.00,0,,185
2012-5-30,91,83,74,70,68,65,74,63,52,29.80,29.70,29.58,10,10,10,32,19,38,0.00,0,,151
2012-5-31,88,79,70,66,61,56,74,54,34,29.94,29.80,29.63,10,10,10,15,11,20,0.00,3,,90